Regional Weather Roundup
Issued by NWS

Home | Current Version | Previous Version | Text Only | Print | Product List | Glossary On
Versions: 1 2 3 4 5 6 7 8 9 10 11 12 13 14 15 16 17 18 19 20 21 22 23 24 25 26 27 28 29 30 31 32 33 34 35 36 37 38 39 40 41 42 43 44 45 46 47 48 49 50
000
ASUS43 KMKX 041811
RWRWI

WISCONSIN REGIONAL WEATHER ROUNDUP
NATIONAL WEATHER SERVICE MILWAUKEE/SULLIVAN WI
1200 PM CST SUN DEC 04 2016

NOTE: "FAIR" INDICATES FEW OR NO CLOUDS BELOW 12,000 FEET WITH NO
SIGNIFICANT WEATHER AND/OR OBSTRUCTIONS TO VISIBILITY.

WIZ001-002-006>008-014>016-023>028-041900-
NORTHWEST WISCONSIN

CITY           SKY/WX    TMP DP  RH WIND       PRES   REMARKS
SUPERIOR ARPT  CLOUDY    33  30  89 S5        29.85F WCI  29
6HR MIN TEMP:  28; 6HR MAX TEMP:  33;

ASHLAND        LGT SNOW  31  29  92 VRB5      29.89F VSB 1   WCI  26
6HR MIN TEMP:  29; 6HR MAX TEMP:  31; 6HR PCP:  0.03;

HAYWARD        LGT SNOW  31  27  85 SE12G17   29.85F FOG     WCI  22
6HR MIN TEMP:  28; 6HR MAX TEMP:  31; 6HR PCP:  0.02;

SIREN          CLOUDY    32  30  92 S9        29.84F WCI  24
6HR MIN TEMP:  30; 6HR MAX TEMP:  32;

CUMBERLAND     LGT SNOW  32  28  86 S10G16    29.84F WCI  24
RICE LAKE      LGT SNOW  32  30  93 SE10      29.87F WCI  23
6HR MIN TEMP:  29; 6HR MAX TEMP:  32;

CHETEK         LGT SNOW  31  30  96 SE9       29.86F WCI  23
6HR MIN TEMP:  29; 6HR MAX TEMP:  31; 6HR PCP:  0.06;

LADYSMITH      LGT SNOW  32  30  94 SE9G16    29.89F VSB 1   WCI  24
6HR MIN TEMP:  29; 6HR MAX TEMP:  32; 6HR PCP:  0.03;

EAU CLAIRE     LGT SNOW  32  30  92 S12       29.87F VSB 3/4 WCI  23
6HR MIN TEMP:  30; 6HR MAX TEMP:  32; 6HR PCP:  0.10;

MENOMONIE      LGT SNOW  33  32  96 SE9       29.87F WCI  25
6HR MIN TEMP:  31; 6HR MAX TEMP:  33; 6HR PCP:  0.08;

NEW RICHMOND   CLOUDY    33  32  97 S9        29.84F FOG     WCI  25
6HR MIN TEMP:  30; 6HR MAX TEMP:  33;

OSCEOLA        CLOUDY    33  33 100 SE8       29.86F FOG     WCI  26
6HR MIN TEMP:  31; 6HR MAX TEMP:  33; 6HR PCP:  0.01;

$$

WIZ003>005-009-010-017-018-041900-
NORTH CENTRAL WISCONSIN

CITY           SKY/WX    TMP DP  RH WIND       PRES   REMARKS
MANITOWISH WTR LGT SNOW  28  28 100 SE6       29.88F WCI  22
6HR MIN TEMP:  26; 6HR MAX TEMP:  28;

ARBOR VITAE    LGT SNOW  32  30  92 SE8       29.89F WCI  25
6HR MIN TEMP:  27; 6HR MAX TEMP:  32;

WOODRUFF       LGT SNOW  32  30  92 SE8       29.89F WCI  25
6HR MIN TEMP:  27; 6HR MAX TEMP:  32;

RHINELANDER    LGT SNOW  29  27  92 VRB7      29.91F VSB 1   WCI  22
6HR MIN TEMP:  26; 6HR MAX TEMP:  29; 6HR PCP:  0.02;

EAGLE RIVER    LGT SNOW  29  26  88 SE7       29.91F WCI  22
6HR MIN TEMP:  26; 6HR MAX TEMP:  29;

LAND O LAKES   LGT SNOW  29  27  90 S9        29.92F WCI  21
6HR MIN TEMP:  26; 6HR MAX TEMP:  29;

PHILLIPS       LGT SNOW  29  28  96 SE8       29.88F WCI  21
6HR MIN TEMP:  26; 6HR MAX TEMP:  29; 6HR PCP:  0.01;

TOMAHAWK       LGT SNOW  29  27  91 SE3       29.91F VSB 1
6HR MIN TEMP:  26; 6HR MAX TEMP:  29;

MEDFORD        MIX PCPN  29  28  94 SE13      29.89F VSB 3/4 WCI  19
6HR MIN TEMP:  26; 6HR MAX TEMP:  29; 6HR PCP:  0.02;

MERRILL        LGT SNOW  30  28  95 S7        29.94F WCI  23
6HR MIN TEMP:  27; 6HR MAX TEMP:  30;

$$

WIZ029-030-035-036-043>047-041900-
CENTRAL WISCONSIN

CITY           SKY/WX    TMP DP  RH WIND       PRES   REMARKS
WAUSAU         LGT SNOW  29  28  96 SE8       29.93F VSB 3/4 WCI  21
6HR MIN TEMP:  27; 6HR MAX TEMP:  29; 6HR PCP:  0.04;

MOSINEE        LGT SNOW  30  30 100 SE14      29.95F VSB 1   WCI  20
MARSHFIELD     HVY SNOW  30  27  88 S13       29.90F VSB 1/4 WCI  20
6HR MIN TEMP:  28; 6HR MAX TEMP:  30; 6HR PCP: TRACE;

STEVENS POINT  MIX PCPN  29  28  99 SE8       29.96F VSB 3/4 WCI  21
6HR MIN TEMP:  26; 6HR MAX TEMP:  29; 6HR PCP:  0.03;

WAUPACA        LGT SNOW  33  30  91 SE8       29.99F WCI  25
6HR MIN TEMP:  31; 6HR MAX TEMP:  33;

WAUTOMA        LGT SNOW  31  29  92 S13       29.99F FOG     WCI  21
6HR MIN TEMP:  29; 6HR MAX TEMP:  31; 6HR PCP: TRACE;

WISC RAPIDS    SNOW      31  30  96 S9        29.96F VSB 1/2 WCI  23
6HR MIN TEMP:  29; 6HR MAX TEMP:  31; 6HR PCP:  0.17;

CAMP DOUGLAS   LGT SNOW  32  30  93 SE9       29.94F FOG     WCI  24
                                      6HR PCP:  0.08;

$$

WIZ011>013-019>022-031-037>040-048>050-041900-
NORTHEAST WISCONSIN

CITY           SKY/WX    TMP DP  RH WIND       PRES   REMARKS
ANTIGO         LGT SNOW  28  27  96 SE10      29.94F WCI  19
6HR MIN TEMP:  26; 6HR MAX TEMP:  28;

SHAWANO        LGT RAIN  33  31  92 SE5       30.01F WCI  28
6HR MIN TEMP:  31; 6HR MAX TEMP:  33; 6HR PCP:  0.01;

OCONTO         CLOUDY    31  30  94 S5        30.03F WCI  27
6HR MIN TEMP:  30; 6HR MAX TEMP:  31;

STURGEON BAY   LGT SNOW  32  28  86 S3        30.03F FOG
6HR MIN TEMP:  30; 6HR MAX TEMP:  32;

GREEN BAY      LGT SNOW  32  31  96 S6        30.03S VSB 1   WCI  26
6HR MIN TEMP:  31; 6HR MAX TEMP:  32; 6HR PCP:  0.07;

MANITOWOC      LGT SNOW  33  29  85 SW5       30.03F FOG     WCI  29
6HR MIN TEMP:  30; 6HR MAX TEMP:  33; 6HR PCP:  0.01;

APPLETON       LGT SNOW  30  30 100 S8        30.00F VSB 1   WCI  23
CLINTONVILLE   LGT SNOW  32  30  93 S6        30.01F WCI  26
OSHKOSH        SNOW      31  29  92 S6        30.00F VSB 1/4 WCI  25
6HR MIN TEMP:  30; 6HR MAX TEMP:  31; 6HR PCP:  0.09;

$$

WIZ032>034-041-042-053>061-041900-
SOUTHWEST WISCONSIN

CITY           SKY/WX    TMP DP  RH WIND       PRES   REMARKS
LA CROSSE      LGT SNOW  34  32  92 S10       29.92F VSB 3/4 WCI  26
6HR MIN TEMP:  34; 6HR MAX TEMP:  34; 6HR PCP:  0.17;

SPARTA         LGT SNOW  32  30  94 S8        29.93F WCI  25
6HR MIN TEMP:  31; 6HR MAX TEMP:  32;

VIROQUA        CLOUDY    31  30  96 SE15      29.92F VSB 3/4 WCI  20
6HR MIN TEMP:  30; 6HR MAX TEMP:  31; 6HR PCP:  0.02;

BOSCOBEL       SNOW      33  30  88 VRB3      29.97F VSB 1/2
6HR MIN TEMP:  32; 6HR MAX TEMP:  33; 6HR PCP:  0.16;

PRAIRIE DU CHI LGT SNOW  32  30  92 SE6       29.96F VSB 3/4 WCI  26
6HR MIN TEMP:  32; 6HR MAX TEMP:  32;

PLATTEVILLE    CLOUDY    31  31 100 S9        29.97F VSB 3/4 WCI  23
6HR MIN TEMP:  31; 6HR MAX TEMP:  31; 6HR PCP:  0.01;

$$

WIZ056-057-062-063-064-067-068-041900-
SOUTH CENTRAL WISCONSIN

CITY           SKY/WX    TMP DP  RH WIND       PRES   REMARKS
REEDSBURG      MIX PCPN  30  30 100 SE5       29.96F VSB 3/4 WCI  25
6HR MIN TEMP:  30; 6HR MAX TEMP:  30; 6HR PCP:  0.05;

BARABOO/DELLS  MIX PCPN  31  29  94 S10       29.96F WCI  22
6HR MIN TEMP:  30; 6HR MAX TEMP:  31; 6HR PCP:  0.05;

LONE ROCK      SNOW      31  29  92 SE8       29.98F VSB 1/2 WCI  23
6HR MIN TEMP:  31; 6HR MAX TEMP:  31; 6HR PCP:  0.19;

MINERAL POINT  LGT SNOW  32  32 100 SE8       29.95F VSB 3/4 WCI  25
MADISON        LGT SNOW  31  29  92 S10       29.98F VSB 3/4 WCI  22
6HR MIN TEMP:  30; 6HR MAX TEMP:  31; 6HR PCP:  0.24;

MIDDLETON      CLOUDY    32  32 100 S7        29.99F VSB 1   WCI  26
6HR MIN TEMP:  32; 6HR MAX TEMP:  32; 6HR PCP:  0.01;

WATERTOWN      LGT SNOW  31  31 100 SE6       29.99F VSB 1   WCI  25
6HR MIN TEMP:  30; 6HR MAX TEMP:  31; 6HR PCP:  0.06;

MONROE         LGT SNOW  30  30 100 SE7       29.96F VSB 1   WCI  23
JANESVILLE     SNOW      32  32 100 SE9       30.00F VSB 1/2 WCI  24
$$

WIZ051-052-058>065-066-070>072-041900-
SOUTHEAST WISCONSIN

CITY           SKY/WX    TMP DP  RH WIND       PRES   REMARKS
MILWAUKEE      LGT SNOW  35  30  82 S6        30.01F VSB 1   WCI  30
6HR MIN TEMP:  33; 6HR MAX TEMP:  37; 6HR PCP: TRACE;

WAUKESHA       LGT SNOW  28  28 100 SE5       30.01F VSB 1   WCI  23
MILWAUKEE/TIMM LGT SNOW  32  28  86 CALM      30.03F VSB 1
RACINE         LGT SNOW  33  31  92 SE3       30.03F VSB 3/4
6HR MIN TEMP:  31; 6HR MAX TEMP:  36; 6HR PCP: TRACE;

BURLINGTON     SNOW      31  30  96 CALM      30.00F VSB 1/2
6HR MIN TEMP:  30; 6HR MAX TEMP:  32; 6HR PCP:  0.02;

KENOSHA        HVY SNOW  33  31  92 S5        30.02F VSB 1/4 WCI  29
6HR MIN TEMP:  31; 6HR MAX TEMP:  35; 6HR PCP:  0.02;

FOND DU LAC    LGT SNOW  31  28  89 S6        29.99F VSB 3/4 WCI  25
6HR MIN TEMP:  30; 6HR MAX TEMP:  31; 6HR PCP:  0.05;

SHEBOYGAN      LGT SNOW  31  29  92 S3        30.02F VSB 3/4
6HR MIN TEMP:  30; 6HR MAX TEMP:  32; 6HR PCP:  0.02;

WEST BEND      LGT SNOW  32  32 100 CALM      30.00F VSB 3/4
JUNEAU         LGT SNOW  30  29  96 SE8       30.00F VSB 1   WCI  23
6HR MIN TEMP:  29; 6HR MAX TEMP:  30; 6HR PCP:  0.05;

$$

LSZ147-162-041900-
LAKE SUPERIOR

STATION/POSITION TIME  TEMP    WIND        PRES    WAVE
                       AIR SEA DIR/SP/G            HT/PER
                 (UTC) (F)     (DEG/KT/KT) (MB)    (FT/S)
DEVILS ISLAND    1800   33     150/  6/  8 1013.0F
PORT WING        1740   32     150/  6/  8 1011.5F
SAXON HARBOR     1740   33     170/  2/ 10 1012.5F
$$

LMZ867-665-643>646-041900-
LAKE MICHIGAN

STATION/POSITION TIME  TEMP    WIND        PRES    WAVE
               C1F1C2F2C3F3C4F4C5F5C6F6C7F7C8M1C9M2Ca!


USA.gov is the U.S. government's official web portal to all federal, state and local government web resources and services.